weather.gov     
National Weather Service

Other Public Products
NWS Homepage
This page is being discontinued on March 12, 2014.
The same data is available at this site. Please update your bookmarks.
Thank you, and we apologize for the inconvenience.
Please send an email to SR-SRH.Webmaster@noaa.gov with any concerns.


Current Version
Previous Version:    01  02  03  04  05  06  07  08  09  10  11  12  13  14  15  16  17  18  19  20  21  22  23  24  25  26  27  28  29  30  
   31  32  33  34  35  36  37  38  39  40  41  42  43  44  45  46  47  48  49  50  51  52  53  54  55  56  57  58  59  60  
[Printable]
507
FPUS83 KFGF 182131
OPUFGF
PRAIRIE TO PINES WEATHER ROUNDUP
NATIONAL WEATHER SERVICE EASTERN NORTH DAKOTA/GRAND FORKS ND
400 PM CDT THU SEP 18 2014

 **SATELLITE DATA USED TO AUGMENT SKY COVER AT AUTOMATED STATIONS**
 *****  WEATHER ACROSS EASTERN NORTH DAKOTA  *****

CITY           SKY/WX    TMP DP  RH WIND       PRES   REMARKS
GRAND FORKS    MOSUNNY   73  57  57 S15G25    29.81F
GRAND FORKS AF SUNNY     72  58  62 S17       29.81F
GRAND CITY NWS   N/A     72 N/A N/A S18         N/A
BUXTON           N/A     71  58  62 SE17        N/A
DEVILS LAKE    MOSUNNY   75  57  53 S18G24    29.73F
FARGO          SUNNY     73  58  59 S17G28    29.85F
WAHPETON ARPT  CLEAR     75  55  50 S20G25    29.87F
$$

 *****  WEATHER ACROSS CENTRAL AND WESTERN NORTH DAKOTA  *****

CITY           SKY/WX    TMP DP  RH WIND       PRES   REMARKS
JAMESTOWN      MOSUNNY   77  60  55 S23G29    29.79F
BISMARCK       PTSUNNY   83  62  49 S18       29.73F
MINOT          PTSUNNY   79  60  52 S17G29    29.65F
MINOT AFB      PTSUNNY   78  62  56 S22       29.63F
GARRISON         N/A     77  64  64 S12       29.69F
WILLISTON      CLOUDY    82  54  37 SW10      29.62F
DICKINSON      CLOUDY    78  58  49 S13       29.71F
HETTINGER      PTSUNNY   77  59  53 SE12      29.76F
$$

 *****  OTHER OBSERVATIONS NORTHEAST NORTH DAKOTA  *****

CITY           SKY/WX    TMP DP  RH WIND       PRES   REMARKS
WALHALLA         N/A     68  57  68 SE18G24   29.75F
LANGDON        FAIR      72  54  53 S21G28    29.75F
CAVALIER       FAIR      68  55  64 S14G21    29.76F
GRAFTON        FAIR      72  55  56 S23       29.78F
CANDO          FAIR      75  55  50 S22G28    29.73F
FORT TOTTEN      N/A     75  54  47 S13       29.95
ROLLA          FAIR      77  52  41 S20G33    29.68F
RUGBY          FAIR      75  64  69 S15G22    29.69F
 ***** THE ABOVE OBSERVATIONS ARE NON NWS ARE NOT QUALITY
        CONTROLLED AND MAY MIS-REPORT RAIN FOR SNOW...
$$

 *****  OTHER OBSERVATIONS SOUTHEAST NORTH DAKOTA *****

CITY           SKY/WX    TMP DP  RH WIND       PRES   REMARKS
COOPERSTOWN    NOT AVBL
VALLEY CITY    FAIR      72  61  68 SE15G21   29.82F
OAKES            N/A     79  63  57 S22G28    29.82F
GWINNER        PTCLDY    75  61  60 SE14G21   29.84F
SHEYENNE NWR     N/A     72  59  64 S14       29.95
BUFFALO          N/A     71  54  54 S12         N/A
WYNDMERE         N/A    N/A N/A N/A SE12        N/A
 ***** THE ABOVE OBSERVATIONS ARE NON NWS ARE NOT QUALITY
       CONTROLLED AND MAY MIS-REPORT RAIN FOR SNOW...
$$

  *****  WEATHER ACROSS NORTHERN MINNESOTA  *****

CITY           SKY/WX    TMP DP  RH WIND       PRES   REMARKS
FLAG ISLAND    PTSUNNY   54  46  76 SE8       29.91F
WARROAD        SUNNY     66  55  68 SE9G17    29.88F
ROSEAU         SUNNY     70  55  60 SE13      29.86F
HALLOCK        SUNNY     75  54  46 S20G28    29.79F
THF RVR FALLS  MOSUNNY   73  55  53 S20       29.84F
HALSTAD          N/A     73  54  50 S18         N/A
FOSSTON        SUNNY     73  54  49 S15G23    29.88F
BAUDETTE       SUNNY     61  50  67 SE8       29.93F
WASKISH        SUNNY     66  54  63 SE8       29.92F
CROOKSTON      SUNNY     73  57  56 S20       29.84F
$$
  *****  WEATHER ACROSS CENTRAL AND WEST MINNESOTA  *****

CITY           SKY/WX    TMP DP  RH WIND       PRES   REMARKS
BEMIDJI        SUNNY     65  51  59 SE15      29.93F
PARK RAPIDS    MOSUNNY   66  52  60 SE16      29.95F
WADENA         MOSUNNY   66  55  68 SE17      29.95F
DETROIT LAKES  SUNNY     68  55  64 S13G21    29.93S
MOORHEAD       SUNNY     73  61  64 S18G26    29.86F
FERGUS FALLS   SUNNY     73  54  49 S21       29.90F
ELBOW LAKE     FAIR      73  59  60 S17G23    29.91F
MORRIS MN      MOSUNNY   77  55  47 S16G25    29.91F
STAPLES        SUNNY     64  54  68 SE10      29.98S
WHEATON        SUNNY     75  57  53 S18       29.89F
$$
  *****  WEATHER ELSEWHERE ACROSS MINNESOTA  *****

CITY           SKY/WX    TMP DP  RH WIND       PRES   REMARKS
DULUTH         CLOUDY    48  41  76 E10       30.09F
INTRNTL FALLS  SUNNY     62  48  60 SE9       29.98F
ELY            SUNNY     54  43  66 S10       30.06F
CLOQUET        CLOUDY    48  43  81 E8        30.07F
BRAINERD       SUNNY     61  52  72 VRB5      30.01F
HIBBING        MOSUNNY   61  47  59 S9G18     30.04F
ALEXANDRIA     SUNNY     72  57  59 S13       29.97F
SAINT CLOUD    SUNNY     73  55  53 SE9       29.99F
MINNEAPOLIS    MOSUNNY   74  52  46 SE10      30.01F
$$

  *****  WEATHER ACROSS SOUTH DAKOTA  *****

CITY           SKY/WX    TMP DP  RH WIND       PRES   REMARKS
SIOUX FALLS    MOSUNNY   77  54  44 S16G24    29.94F
BROOKINGS      NOT AVBL
WATERTOWN      SUNNY     75  57  53 S17G26    29.91F
HURON          MOSUNNY   76  60  57 S17G28    29.87F
SISSETON         N/A     76  61  59 S12G22    29.86F
ABERDEEN       MOSUNNY   78  62  57 S22G30    29.83F
MITCHELL       MOSUNNY   77  61  57 S15       29.90F
PIERRE         SUNNY     83  60  45 S22G30    29.76F
MOBRIDGE       SUNNY     82  61  48 S18G26    29.75F
RAPID CITY     SUNNY     88  56  33 SE16G22   29.77F
$$

  *****  SOME WEATHER IN NEARBY STATES *****

CITY           SKY/WX    TMP DP  RH WIND       PRES   REMARKS
GLASGOW MT     PTSUNNY   75  58  55 W7        29.63F
GREAT FALLS MT FAIR      74  49  41 SW15G23   29.74F
CHEYENNE WY    SUNNY     87  31  13 SW9       30.02F
SCOTTSBLUFF NE MOSUNNY   90  56  31 E12       29.87F
OMAHA NE       MOSUNNY   76  54  46 SE8       29.97F
DES MOINES IA  MOSUNNY   74  51  44 S10       30.03F
DAVENPORT IA   MOSUNNY   72  49  44 SE10      30.08S
CHICAGO IL     MOSUNNY   68  54  60 E13       30.12S
EAU CLAIRE WI  NOT AVBL
LA CROSSE WI   PTSUNNY   70  55  59 SE8       30.08F
$$

  *****  SOME NATIONAL WEATHER *****

CITY           SKY/WX    TMP DP  RH WIND       PRES   REMARKS
LA GUARDIA NY  MOSUNNY   75  44  33 NW7       29.98S
RALEIGH NC     PTSUNNY   78  59  51 E7        29.98S
ATLANTA GA     PTSUNNY   83  61  47 CALM      29.96S
NEW ORLEANS LA PTSUNNY   87  73  63 S9        29.86F HX  95
OKLAHOMA CITY  MOSUNNY   88  64  44 SW3       29.90F
ALBUQUERQUE NM MOSUNNY   80  50  34 SW8       30.00F
SALT LAKE CITY FAIR      91  45  20 S15G25    29.82F
LOS ANGELES CA FAIR      76  63  64 W10G20    29.86F
BOISE ID       FAIR      86  38  18 N7        29.80F HAZE
SEATTLE WA     CLOUDY    65  57  75 SW12      29.87R
$$

*** WEATHER ACROSS MANITOBA...SASKATCHEWAN AND ONTARIO ***
                ***ONTARIO***

CITY           SKY/WX    TMP DP  RH WIND       PRES   REMARKS
GERALDTON      PTSUNNY   52  30  43 S9        30.13F
THUNDER BAY    PTSUNNY   48  36  61 SE10      30.15F
SIOUX LOOKOUT  PTSUNNY   54  41  62 SE9       30.01F
TORONTO        MOSUNNY   57  41  54 N12       30.15S
BIG TROUT LK   SUNNY     52  28  40 S15G22    29.94F
PICKLE LAKE    MOSUNNY   52  32  46 SW16G23   30.00F
DRYDEN         MOSUNNY   54  43  66 S14G20    29.98
KENORA         CLOUDY    48  45  87 SE14      29.94
$$
                *** MANITOBA***

CITY           SKY/WX    TMP DP  RH WIND       PRES   REMARKS
BRANDON        CLOUDY    72  57  60 S14G21    29.64F
DAUPHIN        SUNNY     72  55  56 S7        29.59F
ISLAND LAKE    PTSUNNY   57  41  54 S16       29.74F
PILOT MOUND    NOT AVBL
THE PAS        NOT AVBL
THOMPSON       CLOUDY    55  50  82 S8        29.53F
WINNIPEG       PTSUNNY   66  54  63 SE23      29.78F
LYNN LAKE      PTSUNNY   50  46  87 SW6       29.45F
CHURCHILL      LGT RAIN  37  36  93 S18G29    29.54F
GILLAM         LGT RAIN N/A N/A N/A S10         N/A
$$
                ***SASKATCHEWAN***

CITY           SKY/WX    TMP DP  RH WIND       PRES   REMARKS
ESTEVAN        CLOUDY    79  59  50 S13       29.59F
KINDERSLEY     PTSUNNY   79  52  38 NW12      29.51F
LLOYDMINSTER   CLOUDY    66  50  55 N9        29.54F
PRINCE ALBERT  CLOUDY    63  54  72 SE5       29.47F
REGINA         CLOUDY    77  59  53 S10       29.53F




U.S. Dept. of Commerce
NOAA National Weather Service
1325 East West Highway
Silver Spring, MD 20910
E-mail: w-nws.webmaster@noaa.gov
Page last modified: May 16, 2007
NATIONAL WEATHER SERVICE: for Safety, for Work, for Fun - FOR LIFE